User: anonymous   Login
Location: Fontevrault
(47.1823°N, 0.0493°E)
Time: 00:24:21
(UTC+00:00)
Language:

Meteor 1-24 Rocket - Orbit

View from above orbital plane
View from above orbital plane
View from above satellite
View from above satellite

Ground track
Ground track

The orbit data is extracted from the following two-line orbital elements,

1  8800U 76032B   21268.35950044 -.00000054  00000-0 -36723-4 0  9999
2  8800  81.2500 138.4844 0095253  84.8404 276.3630 14.10169071338201
Epoch (UTC): 25 September 2021 08:37:40
Eccentricity: 0.0095253
inclination: 81.2500°
perigee height: 790 km
apogee height: 928 km
right ascension of ascending node: 138.4844°
argument of perigee: 84.8404°
revolutions per day: 14.10169071
mean anomaly at epoch: 276.3630°
orbit number at epoch: 33820

The dashed part of the orbit path shows where the satellite is in the earth's shadow,  

DLR